FENGYUN 1C DEB, 29950

Orbit data source: Space-Track

FENGYUN 1C DEB, 29950 is space debris in SSO originally from a launch on Mon, 10 May 1999 UTC launched from the Taiyaun Space Center, China (TSC). Fengyun 1C debris stems from the Chinese weather satellite Fengyun-1C, which was intentionally destroyed by a Chinese anti-satellite missile in 2007. This event dramatically increased the amount of space debris, with thousands of trackable fragments posing hazards to satellites and human spaceflight. The Fengyun 1C debris cloud has become a focal point in discussions about space sustainability and the need for international regulations to prevent the creation of new debris.

Loading next visibility...
Identifier
29950, 1999-025JY
Orbit
SSO
Country
Flag of CNCN / PRC
Related business
Manufacturer
Unknown
Mission
Spacecraft
Bus & Motor
Unknown
Mass
Unknown
Launch date (UTC)
1999-05-10 (27 years ago)
Launch vehicle
Unknown
Launch site
Taiyaun Space Center, China (TSC)
Object type
Payload
Rocket body
Debris
Shape & HBR
Unknown shape, 0.2 m
Radar Cross Section
Medium (>0.1 m² and <1 m²)

Expand to show TLE details & history
Last TLE update: 17 hours ago

TLE from 17 hours ago
0 FENGYUN 1C DEB
1 29950U 99025JY  26256.36369281  .00000093  00000-0  75804-4 0  9999
2 29950  98.7136 284.3666 0033134 182.6558 246.0979 14.10439927 11622
Epoch: 2026-09-13T08:43Z
TLE epoch observation values (Epoch: 2026-09-13T08:43:43.058Z)
Latitude
66.87783°
Longitude
140.15856°
Altitude
879.177 km
Speed
7.414 km/s
True Right ascension
17h 33m 47s
True Declination
66° 45' 20"
Sunlit
Object was in daylight at epoch
Visualization orbit readout
Latitude
Unknown
Longitude
Unknown
Altitude
Unknown
Speed
Unknown
Apparent Right ascension
Unknown
Apparent Declination
Unknown
Sunlit
N/A
Visualization observer readout
Local Sidereal Time
17:47:43
Azimuth
Unknown
Elevation
Unknown
Doppler factor
Unknown
Orbital elements
Apogee altitude
879.005 km
Perigee altitude
831.072 km
Semi-major axis
7,233.175 km
Eccentricity
0.00331
Inclination
98.7136°
RAAN
284.3666°
Arg. of periapsis
182.6558°
True anomaly
245.75136°
Mean anomaly
246.0979°
Eccentric anomaly
245.92457°
Mean motion
3.52817 °/min
Orbital period
102.04 mins
BSTAR
0.000075804
Loading maneuver chart data...
Computing Atmospheric mass density...
Loading historical data...
Loading historical data...
Loading historical data...
Loading historical data...
Loading historical data...
Loading historical data...
Loading historical data...

Documentation

Showing up to 5 results
|